• Em Portugal
  • Lista de países
  • Para 7 dias
  • Temperatura da água
  • Mapas de satélite
  • Mapa do tempo
  • Widgets de tempo
  • user-avatar
    Iniciar Sessão

    Previsão horária em Jalalabad

    Hoje, 19 Julho, Quinta-feira

    Tempo Temperatura Precipitação Vento Pressão Humidade
    00:00 +33°C° 0,9 mm 1 m/s 703 mmHg 66%
    01:00 +32°C° 0,9 mm 1 m/s 703 mmHg 67%
    02:00 +32°C° 0,9 mm 1 m/s 703 mmHg 69%
    03:00 +32°C° 0,6 mm 1 m/s 703 mmHg 71%
    04:00 +29°C° 0,6 mm 0 m/s 703 mmHg 73%
    05:00 +28°C° 0 mm 0 m/s 703 mmHg 76%
    06:00 +29°C° 0,3 mm 0 m/s 703 mmHg 72%
    07:00 +32°C° 0,3 mm 1 m/s 703 mmHg 67%
    08:00 +33°C° 0,3 mm 1 m/s 703 mmHg 63%
    09:00 +34°C° 0 mm 1 m/s 703 mmHg 56%
    10:00 +36°C° 0 mm 2 m/s 703 mmHg 49%
    11:00 +38°C° 0 mm 2 m/s 703 mmHg 42%
    12:00 +38°C° 0,1 mm 3 m/s 703 mmHg 39%
    13:00 +39°C° 0,1 mm 3 m/s 702 mmHg 36%
    14:00 +40°C° 0,1 mm 3 m/s 702 mmHg 33%
    15:00 +40°C° 0,1 mm 3 m/s 702 mmHg 32%
    16:00 +42°C° 0,1 mm 3 m/s 702 mmHg 32%
    17:00 +42°C° 0,1 mm 3 m/s 701 mmHg 32%
    18:00 +40°C° 0,2 mm 3 m/s 701 mmHg 35%
    19:00 +38°C° 0,2 mm 2 m/s 701 mmHg 39%
    20:00 +37°C° 0,2 mm 2 m/s 701 mmHg 43%
    21:00 +37°C° 0,3 mm 2 m/s 701 mmHg 46%
    22:00 +35°C° 0,3 mm 1 m/s 702 mmHg 49%
    23:00 +34°C° 0,3 mm 1 m/s 702 mmHg 52%

    Amanhã, 20 Julho, Sexta-feira

    Tempo Temperatura Precipitação Vento Pressão Humidade
    00:00 +34°C° 0,1 mm 1 m/s 702 mmHg 54%
    01:00 +31°C° 0,1 mm 0 m/s 701 mmHg 56%
    02:00 +31°C° 0,1 mm 0 m/s 701 mmHg 58%
    03:00 +30°C° 0,1 mm 0 m/s 701 mmHg 59%
    04:00 +30°C° 0,1 mm 0 m/s 701 mmHg 61%
    05:00 +29°C° 0,1 mm 0 m/s 701 mmHg 63%
    06:00 +30°C° 0 mm 0 m/s 701 mmHg 60%
    07:00 +33°C° 0 mm 1 m/s 701 mmHg 57%
    08:00 +34°C° 0 mm 1 m/s 701 mmHg 54%
    09:00 +35°C° 0 mm 1 m/s 702 mmHg 48%
    10:00 +37°C° 0 mm 2 m/s 702 mmHg 43%
    11:00 +38°C° 0 mm 2 m/s 702 mmHg 37%
    12:00 +39°C° 0,1 mm 2 m/s 701 mmHg 35%
    13:00 +40°C° 0,1 mm 3 m/s 701 mmHg 33%
    14:00 +42°C° 0,1 mm 3 m/s 701 mmHg 30%
    15:00 +42°C° 0,2 mm 3 m/s 701 mmHg 31%
    16:00 +42°C° 0,2 mm 3 m/s 700 mmHg 31%
    17:00 +42°C° 0,2 mm 3 m/s 700 mmHg 31%
    18:00 +40°C° 0,7 mm 3 m/s 700 mmHg 35%
    19:00 +39°C° 0,7 mm 2 m/s 701 mmHg 39%
    20:00 +38°C° 0,7 mm 2 m/s 701 mmHg 43%
    21:00 +36°C° 0,7 mm 1 m/s 701 mmHg 46%
    22:00 +36°C° 0,7 mm 1 m/s 701 mmHg 48%
    23:00 +33°C° 0,7 mm 0 m/s 702 mmHg 50%

    Depois de amanhã, 21 Julho, Sábado

    Tempo Temperatura Precipitação Vento Pressão Humidade
    00:00 +32°C° 0,2 mm 0 m/s 701 mmHg 52%
    01:00 +32°C° 0,2 mm 0 m/s 701 mmHg 54%
    02:00 +31°C° 0,2 mm 0 m/s 701 mmHg 55%
    03:00 +31°C° 0,2 mm 0 m/s 701 mmHg 57%
    04:00 +30°C° 0,2 mm 0 m/s 701 mmHg 59%
    05:00 +30°C° 0,2 mm 0 m/s 701 mmHg 61%
    06:00 +32°C° 0 mm 1 m/s 701 mmHg 58%
    07:00 +33°C° 0 mm 1 m/s 702 mmHg 54%
    08:00 +34°C° 0 mm 1 m/s 702 mmHg 51%
    09:00 +35°C° 0 mm 1 m/s 702 mmHg 45%
    10:00 +38°C° 0 mm 2 m/s 702 mmHg 40%
    11:00 +39°C° 0 mm 2 m/s 702 mmHg 35%
    12:00 +40°C° 0,1 mm 2 m/s 702 mmHg 33%
    13:00 +41°C° 0,1 mm 2 m/s 701 mmHg 31%
    14:00 +43°C° 0,1 mm 3 m/s 701 mmHg 29%
    15:00 +43°C° 0,4 mm 3 m/s 701 mmHg 29%
    16:00 +43°C° 0,4 mm 3 m/s 701 mmHg 29%
    17:00 +43°C° 0,4 mm 3 m/s 701 mmHg 29%
    18:00 +41°C° 0,5 mm 2 m/s 701 mmHg 33%
    19:00 +40°C° 0,5 mm 2 m/s 701 mmHg 37%
    20:00 +39°C° 0,5 mm 2 m/s 701 mmHg 41%
    21:00 +37°C° 0,3 mm 1 m/s 701 mmHg 43%
    22:00 +36°C° 0,3 mm 1 m/s 701 mmHg 45%
    23:00 +36°C° 0,3 mm 1 m/s 702 mmHg 48%

    22 Julho, Domingo

    Tempo Temperatura Precipitação Vento Pressão Humidade
    00:00 +35°C° 0,1 mm 1 m/s 701 mmHg 50%
    01:00 +34°C° 0,1 mm 1 m/s 701 mmHg 51%
    02:00 +34°C° 0,1 mm 1 m/s 701 mmHg 53%
    03:00 +33°C° 0 mm 1 m/s 700 mmHg 54%
    04:00 +32°C° 0 mm 1 m/s 700 mmHg 56%
    05:00 +32°C° 0 mm 1 m/s 700 mmHg 57%
    06:00 +33°C° 0 mm 1 m/s 700 mmHg 50%
    07:00 +34°C° 0 mm 1 m/s 700 mmHg 44%
    08:00 +35°C° 0 mm 1 m/s 701 mmHg 37%
    09:00 +37°C° 0 mm 1 m/s 701 mmHg 33%
    10:00 +39°C° 0 mm 1 m/s 701 mmHg 28%
    11:00 +40°C° 0 mm 2 m/s 701 mmHg 24%
    12:00 +41°C° 0 mm 2 m/s 700 mmHg 23%
    13:00 +42°C° 0 mm 2 m/s 700 mmHg 22%
    14:00 +44°C° 0 mm 3 m/s 700 mmHg 21%
    15:00 +44°C° 0 mm 3 m/s 699 mmHg 21%
    16:00 +44°C° 0 mm 3 m/s 699 mmHg 21%
    17:00 +45°C° 0 mm 3 m/s 699 mmHg 22%
    18:00 +42°C° 0,1 mm 2 m/s 699 mmHg 26%
    19:00 +41°C° 0,1 mm 2 m/s 700 mmHg 30%
    20:00 +39°C° 0,1 mm 1 m/s 700 mmHg 35%
    21:00 +37°C° 0,1 mm 1 m/s 700 mmHg 37%
    22:00 +37°C° 0,1 mm 1 m/s 701 mmHg 39%
    23:00 +36°C° 0,1 mm 1 m/s 701 mmHg 40%

    23 Julho, Segunda-feira

    Tempo Temperatura Precipitação Vento Pressão Humidade
    00:00 +36°C° 0,1 mm 1 m/s 701 mmHg 42%
    01:00 +35°C° 0,1 mm 1 m/s 701 mmHg 44%
    02:00 +34°C° 0,1 mm 1 m/s 700 mmHg 46%
    03:00 +34°C° 0,5 mm 1 m/s 700 mmHg 49%
    04:00 +33°C° 0,5 mm 1 m/s 700 mmHg 52%
    05:00 +32°C° 0,5 mm 1 m/s 700 mmHg 55%
    06:00 +33°C° 0,6 mm 1 m/s 700 mmHg 54%
    07:00 +34°C° 0,6 mm 1 m/s 701 mmHg 54%
    08:00 +34°C° 0,6 mm 1 m/s 701 mmHg 53%
    09:00 +36°C° 0,1 mm 1 m/s 701 mmHg 48%
    10:00 +38°C° 0,1 mm 2 m/s 701 mmHg 42%
    11:00 +39°C° 0,1 mm 2 m/s 701 mmHg 36%
    12:00 +40°C° 0,1 mm 2 m/s 700 mmHg 34%
    13:00 +42°C° 0,1 mm 3 m/s 700 mmHg 32%
    14:00 +43°C° 0,1 mm 3 m/s 700 mmHg 30%
    15:00 +43°C° 0,1 mm 4 m/s 700 mmHg 31%
    16:00 +43°C° 0,1 mm 4 m/s 699 mmHg 33%
    17:00 +43°C° 0,1 mm 4 m/s 699 mmHg 34%
    18:00 +41°C° 0,5 mm 4 m/s 700 mmHg 40%
    19:00 +40°C° 0,5 mm 4 m/s 700 mmHg 46%
    20:00 +38°C° 0,5 mm 4 m/s 701 mmHg 53%
    21:00 +37°C° 0,9 mm 4 m/s 701 mmHg 58%
    22:00 +36°C° 0,9 mm 4 m/s 702 mmHg 64%
    23:00 +35°C° 0,9 mm 3 m/s 702 mmHg 70%

    24 Julho, Terça-feira

    Tempo Temperatura Precipitação Vento Pressão Humidade
    00:00 +34°C° 0,6 mm 3 m/s 702 mmHg 73%
    01:00 +33°C° 0,6 mm 3 m/s 702 mmHg 76%
    02:00 +32°C° 0,6 mm 2 m/s 702 mmHg 80%
    03:00 +31°C° 0,4 mm 2 m/s 702 mmHg 81%
    04:00 +31°C° 0,4 mm 1 m/s 702 mmHg 83%
    05:00 +31°C° 0,4 mm 1 m/s 701 mmHg 84%
    06:00 +31°C° 0,1 mm 1 m/s 702 mmHg 82%
    07:00 +32°C° 0,1 mm 1 m/s 702 mmHg 79%
    08:00 +32°C° 0,1 mm 1 m/s 702 mmHg 76%
    09:00 +34°C° 0,1 mm 2 m/s 702 mmHg 69%
    10:00 +36°C° 0,1 mm 2 m/s 702 mmHg 62%
    11:00 +37°C° 0,1 mm 3 m/s 702 mmHg 55%
    12:00 +38°C° 0,1 mm 3 m/s 702 mmHg 52%
    13:00 +38°C° 0,1 mm 4 m/s 702 mmHg 49%
    14:00 +40°C° 0,1 mm 4 m/s 701 mmHg 47%
    15:00 +40°C° 0,1 mm 4 m/s 701 mmHg 48%
    16:00 +40°C° 0,1 mm 4 m/s 701 mmHg 50%
    17:00 +40°C° 0,1 mm 4 m/s 701 mmHg 51%
    18:00 +37°C° 0,2 mm 4 m/s 701 mmHg 56%
    19:00 +36°C° 0,2 mm 4 m/s 702 mmHg 61%
    20:00 +35°C° 0,2 mm 3 m/s 702 mmHg 66%
    21:00 +35°C° 0,5 mm 3 m/s 702 mmHg 69%
    22:00 +34°C° 0,5 mm 2 m/s 703 mmHg 72%
    23:00 +34°C° 0,5 mm 2 m/s 703 mmHg 74%
    Mostrar mais